Location: Mainz-Finthen
(49.9906°N, 8.1713°E)
Time: 22:00:33
(UTC+00:00)

N. Korean satellite - Pass Details

Date: 26 September 2021
Orbit: 450 x 495 km, 97.3° (Epoch: 21 October)

Event Time Altitude Azimuth Distance (km) Brightness Sun altitude
Rises 04:35:39 0° 16° (NNE) 2,526 10.5 -7.9°
Reaches altitude 10° 04:37:45 10° 22° (NNE) 1,652 9.7 -7.6°
Maximum altitude 04:41:13 53° 100° (E) 594 7.5 -7.0°
Drops below altitude 10° 04:44:44 10° 179° (S) 1,663 9.2 -6.5°
Sets 04:46:50 0° 184° (S) 2,545 10.1 -6.1°
